Lincoln, NE

7:19 PM CDT on August 16, 2017 (GMT -0500)
Lincoln Municipal

Weather History for KLNK - January, 2010

Change the Weather History Date:

Friday, January 29, 2010

  Actual Average Record
Temperature  
Mean Temperature 17 °F 25 °F  
Max Temperature 24 °F 36 °F 66 °F (1931)
Min Temperature 9 °F 14 °F -18 °F (1966)
Degree Days  
Heating Degree Days 48 40  
Month to date heating degree days 1363 1176  
Since 1 July heating degree days 4054 3621  
Cooling Degree Days 0 0  
Month to date cooling degree days 0 0  
Year to date cooling degree days 0 0  
Moisture  
Dew Point 4 °F    
Average Humidity 59    
Maximum Humidity 73    
Minimum Humidity 45    
Precipitation  
Precipitation 0.00 in 0.02 in 0.52 in (1922)
Month to date precipitation 0.82 0.59  
Year to date precipitation 0.82 0.59  
Snow  
Snow 0.00 in 0.20 in - ()
Month to date snowfall 7.1 5.0  
Since 1 July snowfall 32.6 13.7  
Snow Depth 3.00 in    
Sea Level Pressure  
Sea Level Pressure 30.41 in    
Wind  
Wind Speed 7 mph (ENE)    
Max Wind Speed 12 mph    
Max Gust Speed 14 mph    
Visibility 10 miles    
Events      
T = Trace of Precipitation, MM = Missing Value Source: NWS Daily Summary

Daily Weather History Graph

Daily Weather History Graph

Search for Another Location

Airport or City:

Trip Planner

Search our weather history database for the weather conditions in past years. The results will help you decide how hot, cold, wet, or windy it might be!

Date:

Astronomy

Jan. 29, 2010 Rise Set
Actual Time 7:40 AM CST 5:40 PM CST
Civil Twilight 7:10 AM CST 6:10 PM CST
Nautical Twilight 6:37 AM CST 6:43 PM CST
Astronomical Twilight 6:05 AM CST 7:15 PM CST
Moon 5:20 PM CST (1/29) 7:08 AM CST (1/29)
Length of Visible Light 10h 59m
Length of Day
10h 00m
Full, 100% of the Moon is Illuminated
Jan 29
Full
Jan 30
Full
Feb 5
Last Quarter
Feb 13
New
Feb 21
First Quarter

Hourly Weather History & Observations

Time (CST) Temp. Windchill Dew Point Humidity Pressure Visibility Wind Dir Wind Speed Gust Speed Precip Events Conditions
12:54 AM 10.9 °F 2.9 °F 3.0 °F 70% 30.55 in 10.0 mi NE 4.6 mph - N/A   Overcast
1:54 AM 10.9 °F -1.8 °F 3.0 °F 70% 30.56 in 10.0 mi NNE 9.2 mph - N/A   Mostly Cloudy
2:54 AM 10.0 °F 1.8 °F 3.0 °F 73% 30.54 in 10.0 mi NE 4.6 mph - N/A   Clear
3:54 AM 10.9 °F -0.8 °F 3.0 °F 70% 30.51 in 10.0 mi NE 8.1 mph - N/A   Clear
4:54 AM 10.9 °F 0.2 °F 3.9 °F 73% 30.49 in 9.0 mi ENE 6.9 mph - N/A   Partly Cloudy
5:54 AM 9.0 °F -0.9 °F 1.9 °F 73% 30.46 in 9.0 mi ENE 5.8 mph - N/A   Clear
6:54 AM 10.0 °F 0.4 °F 1.9 °F 70% 30.47 in 9.0 mi ENE 5.8 mph - N/A   Partly Cloudy
7:54 AM 9.0 °F -2.2 °F 1.0 °F 70% 30.46 in 9.0 mi NE 6.9 mph - N/A   Overcast
8:54 AM 10.0 °F -0.9 °F 1.9 °F 70% 30.47 in 8.0 mi NE 6.9 mph - N/A   Overcast
9:54 AM 12.9 °F 3.8 °F 3.9 °F 67% 30.48 in 9.0 mi East 5.8 mph - N/A   Mostly Cloudy
10:54 AM 15.1 °F 3.3 °F 3.0 °F 59% 30.47 in 10.0 mi SE 9.2 mph - N/A   Clear
11:54 AM 17.1 °F 8.7 °F 3.0 °F 54% 30.44 in 10.0 mi SE 5.8 mph - N/A   Clear
12:54 PM 19.0 °F 13.9 °F 3.9 °F 52% 30.40 in 10.0 mi Variable 3.5 mph - N/A   Clear
1:54 PM 23.0 °F 18.4 °F 5.0 °F 46% 30.36 in 10.0 mi Variable 3.5 mph - N/A   Clear
2:54 PM 23.0 °F 13.1 °F 6.1 °F 48% 30.33 in 10.0 mi ENE 9.2 mph - N/A   Clear
3:54 PM 21.9 °F 12.5 °F 8.1 °F 55% 30.32 in 10.0 mi ENE 8.1 mph - N/A   Clear
4:54 PM 21.0 °F 10.6 °F 7.0 °F 55% 30.34 in 10.0 mi ENE 9.2 mph - N/A   Clear
5:54 PM 17.1 °F 7.6 °F 7.0 °F 65% 30.33 in 10.0 mi ENE 6.9 mph - N/A   Clear
6:54 PM 16.0 °F 6.3 °F 6.1 °F 65% 30.32 in 10.0 mi ENE 6.9 mph - N/A   Clear
7:54 PM 15.1 °F 4.2 °F 6.1 °F 68% 30.32 in 10.0 mi East 8.1 mph - N/A   Clear
8:54 PM 14.0 °F 3.9 °F 5.0 °F 67% 30.32 in 10.0 mi ESE 6.9 mph - N/A   Scattered Clouds
9:54 PM 14.0 °F 2.9 °F 5.0 °F 67% 30.31 in 10.0 mi ESE 8.1 mph - N/A   Overcast
10:54 PM 12.9 °F 5.2 °F 5.0 °F 71% 30.32 in 10.0 mi East 4.6 mph - N/A   Overcast
11:54 PM 12.9 °F 6.9 °F 5.0 °F 71% 30.30 in 10.0 mi ESE 3.5 mph - N/A   Overcast